User: anonymous   Login
Location: Chiroubles
(46.1812°N, 4.6660°E)
Time: 05:45:52
(UTC+00:00)
Language:

Terra - Orbit

View from above orbital plane
View from above orbital plane
View from above satellite
View from above satellite

Ground track
Ground track

The orbit data is extracted from the following two-line orbital elements,

1 25994U 99068A   20296.48368868 +.00000103 +00000-0 +32984-4 0  9995
2 25994 098.2018 008.9316 0001332 070.9129 289.2200 14.57117476108817
Epoch (UTC): 22 October 2020 11:36:30
Eccentricity: 0.0001332
inclination: 98.2018°
perigee height: 701 km
apogee height: 703 km
right ascension of ascending node: 8.9316°
argument of perigee: 70.9129°
revolutions per day: 14.57117476
mean anomaly at epoch: 289.2200°
orbit number at epoch: 10881

The dashed part of the orbit path shows where the satellite is in the earth's shadow,  

DLR